OBJECT R, 61750

Orbit data source: Space-Track

You're viewing an Uncataloged Satellite

Recently launched and/or uncataloged satellites may have evolving metadata. Metadata may include but not limited to: Owner, Maufacturer, Bus, Motor, and Mission.

OBJECT R, 61750 is a satellite in SSO that was launched on Mon, 04 Nov 2024 UTC via a SOYUZ-2-1B launch vehicle from the Vostochny Cosmodrome (VOSTO). Unknown objects in Earth's orbit typically refer to objects detected orbiting the Earth but have not yet been identified or cataloged. These objects could be anything from previously untracked satellites, spent rocket stages, debris from satellite collisions, or even natural meteoroids temporarily captured by Earth's gravity.

Loading next visibility...
Identifier
61750, 2024-199R
Orbit
SSO
Country
Flag of TBDTBD
Related business
None
Manufacturer
Unknown
Mission
Operational Commercial Technology
Bus & Motor
Unknown
Mass
Unknown
Launch date (UTC)
2024-11-04 (1 year ago)
Launch vehicle
SOYUZ-2-1B
Launch site
Vostochny Cosmodrome (VOSTO)
Object type
Unknown
Shape & HBR
Box, 0.1 m
Radar Cross Section
0.035 m², Medium (>0.1 m² and < 1m²)

Expand to show TLE details & history
Last TLE update: 7 hours ago

TLE from 7 hours ago
0 OBJECT R
1 61750U 24199R   25297.96038517  .00028662  00000-0  74017-3 0  9994
2 61750  97.3284 166.2749 0012561  63.4355 296.8176 15.39018891101185
Epoch: 2025-10-24T23:02Z
TLE epoch observation values (Epoch: 2025-10-24T23:02:57.278Z)
Latitude
-0.00009°
Longitude
146.93846°
Altitude
448.266 km
Speed
7.645 km/s
True Right ascension
11h 05m 05s
True Declination
0° 00' 00"
Sunlit
Object was in daylight at epoch
Visualization orbit readout
Latitude
Unknown
Longitude
Unknown
Altitude
Unknown
Speed
Unknown
Apparent Right ascension
Unknown
Apparent Declination
Unknown
Sunlit
N/A
Visualization observer readout
Local Sidereal Time
01:07:02
Azimuth
Unknown
Elevation
Unknown
Doppler factor
Unknown
Orbital elements
Apogee altitude
454.518 km
Perigee altitude
437.375 km
Semi-major axis
6,824.083 km
Eccentricity
0.00126
Inclination
97.3284°
RAAN
166.2749°
Arg. of periapsis
63.4355°
True anomaly
296.68905°
Mean anomaly
296.8176°
Eccentric anomaly
296.75333°
Mean motion
3.85014 °/min
Orbital period
93.5 mins
BSTAR
0.00074017
Loading maneuver chart data...
Computing Atmospheric mass density...
Loading historical data...
Loading historical data...
Loading historical data...
Loading historical data...
Loading historical data...
Loading historical data...
Loading historical data...

Documentation

Showing up to 5 results
|